Hourly Data Report for September 07, 2017

All times are specified in Local Standard Time (LST). Add 1 hour to adjust for Daylight Saving Time where and when it is observed.

KAMLOOPS A
BRITISH COLUMBIA

50°42'09.000" N
120°26'55.000" W
345.30 m
1163781
71887
YKA

Download Data

Hourly Data (September 2017)
Hourly Data Report for September 7, 2017
Temp Definition
°C
Dew Point Temp Definition
°C
Rel Hum Definition
%
Wind Dir Definition
10's deg

Wind Spd Definition
km/h
Visibility Definition
km
Stn Press Definition
kPa
Hmdx Definition


Wind Chill Definition


Weather Definition


TIME
00:00 Legend Double Dagger 17.8 11.9 68 7 3 16.1 97.18     LegendNANA
01:00 Legend Double Dagger 17.8 11.5 66 1 8 16.1 97.19     Mostly Cloudy
02:00 Legend Double Dagger 17.6 11.4 66 8 5 16.1 97.20     LegendNANA
03:00 Legend Double Dagger 17.0 11.0 67 6 8 16.1 97.19     LegendNANA
04:00 Legend Double Dagger 17.1 12.8 76 13 7 16.1 97.17     Mostly Cloudy
05:00 Legend Double Dagger 15.5 11.7 78 36 2 16.1 97.16     LegendNANA
06:00 Legend Double Dagger 13.5 11.1 86 0 1 11.3 97.22     LegendNANA
07:00 Legend Double Dagger 15.6 10.7 72 3 4 8.1 97.23     Smoke
08:00 Legend Double Dagger 17.5 12.2 71 35 4 6.4 97.25     Smoke
09:00 Legend Double Dagger 18.7 11.9 65 18 5 6.4 97.25     Smoke
10:00 Legend Double Dagger 20.2 11.3 56 36 1 6.4 97.20     Smoke
11:00 Legend Double Dagger 21.7 11.4 52 36 2 6.4 97.11     Smoke
12:00 Legend Double Dagger 23.4 10.9 45 31 4 6.4 97.01 25   Smoke
13:00 Legend Double Dagger 24.4 11.6 44 33 4 6.4 96.92 26   Smoke
14:00 Legend Double Dagger 25.4 11.1 40 21 5 6.4 96.83 27   Smoke
15:00 Legend Double Dagger 25.1 12.0 44 21 5 6.4 96.75 27   Smoke
16:00 Legend Double Dagger 24.1 12.1 47 27 5 6.4 96.69 26   Smoke
17:00 Legend Double Dagger 23.1 13.0 53 27 6 6.4 96.63 26   Smoke
18:00 Legend Double Dagger 22.3 13.3 56 36 1 6.4 96.61 25   Smoke
19:00 Legend Double Dagger 20.3 13.8 66 36 1 6.4 96.61     Smoke
20:00 Legend Double Dagger 19.4 13.4 68 30 3 9.7 96.67     Smoke
21:00 Legend Double Dagger 19.2 12.9 67 31 4 9.7 96.69     Smoke
22:00 Legend Double Dagger 17.9 13.3 74 36 1 9.7 96.70     Smoke
23:00 Legend Double Dagger 18.6 13.3 71 12 9 9.7 96.69     Smoke

Notes on Data Quality.

Legend

  • E = Estimated
  • M = Missing
  • NA = Not Available
  • ‡ = Partner data that is not subject to review by the National Climate Archives
Date modified: